Location: Le Castellard
(44.1862°N, 6.1301°E)
Time: 21:47:28
(UTC+00:00)

USA 215 - Pass Details

Date: 18 January 2020
Orbit: 1101 x 1107 km, 123.0° (Epoch: 06 February)

Event Time Altitude Azimuth Distance (km) Brightness Sun altitude
Rises 05:38:33 0° 159° (SSE) 3,908 6.7 -15.5°
Reaches altitude 10° 05:41:17 10° 168° (SSE) 2,953 5.9 -15.0°
Maximum altitude 05:47:06 34° 232° (SW) 1,720 4.0 -14.0°
Enters shadow 05:51:20 17° 286° (WNW) 2,451 4.4 -13.2°
